[[{"header":{"parameterUnit":"m.s-1","parameterCategory":1,"la1":30.2992,"la2":30.254,"lo1":-89.0895,"lo2":-89.0443,"dy":0.0025,"dx":0.0025,"nx":19,"ny":19,"refTime":"2026-05-24T09:00:00:Z","depth":0,"parameterNumber":2,"parameterNumberName":"U-component_of_WINDS"},"data":[0,0,0,2.8378,2.8381,2.8532,2.8532,2.872,2.8722,0,0,0,0,0,0,0,0,0,0,0,2.8331,2.8332,2.8378,2.8382,2.8532,2.8533,2.872,2.8722,0,0,0,0,0,0,0,0,0,0,0,2.8331,2.8332,2.8333,2.8382,2.8532,2.8533,2.8719,2.8608,0,0,0,0,0,0,0,0,0,0,2.8462,2.8416,2.8332,2.8333,2.8383,2.8532,2.8533,2.8602,2.8615,2.865,0,2.8681,0,2.8704,2.8734,2.8735,0,0,0,2.8384,2.8406,2.8449,2.8334,2.8385,2.8531,2.8465,2.8609,2.8623,2.8666,2.8683,2.869,2.8707,2.8735,2.8736,2.8932,2.8933,0,0,2.8376,2.8357,2.8439,2.8458,2.8434,2.846,2.8469,2.8618,2.8635,2.8684,2.8695,2.871,2.8736,2.8738,2.8931,2.8932,0,0,0,2.835,2.8351,2.839,2.845,2.8477,2.8464,2.8475,2.8629,2.8643,2.8697,2.8712,2.8737,2.874,2.893,2.8931,2.8953,0,0,0,2.8345,2.8336,2.8387,2.8376,2.8474,2.8555,2.8483,2.8633,2.865,2.8711,2.8737,2.8741,2.8929,2.8931,2.895,2.8966,0,0,0,2.8322,2.8333,2.8354,2.8375,2.8439,2.8553,2.8576,2.8637,2.866,2.8735,2.8742,2.8929,2.8931,2.8948,2.8963,2.9012,0,0,0,2.8292,2.8372,2.8354,2.8449,2.8438,2.8565,2.8575,2.8671,2.8738,2.8738,2.8929,2.8931,2.8948,2.8961,2.9009,2.9049,2.9065,0,0,2.8382,2.8382,2.8439,2.8428,2.8553,2.8544,2.8673,2.8752,2.8777,2.8879,2.8884,2.8951,2.8963,2.9011,2.9156,2.9167,0,0,0,2.8462,2.8502,2.854,2.8602,2.8665,2.8719,2.8781,2.881,2.8897,2.8825,2.8983,2.899,2.902,2.904,2.905,2.9076,2.894,2.894,2.8939,2.8562,2.8589,2.8685,2.8729,2.879,2.8852,2.8904,2.8954,2.8964,2.9,2.9031,2.9115,2.9138,2.9145,2.9172,2.9054,2.9054,2.9054,2.9054,2.8696,2.8758,2.8768,2.8865,2.8893,2.8974,2.9037,2.9041,2.9121,2.9094,2.9122,2.909,2.9157,2.9182,2.9056,2.9056,2.9056,2.9056,2.9055,2.8765,2.8799,2.8833,2.8926,2.8994,2.9036,2.9112,2.9135,2.9156,2.9183,2.9217,2.9217,2.9219,2.9198,2.9198,2.9198,2.9199,2.9199,2.9199,2.8823,2.8861,2.8922,2.8993,2.9036,2.9095,2.9157,2.92,2.9253,2.9263,2.9264,2.9269,2.9159,2.9131,2.9204,2.9203,2.9202,2.9202,2.9202,2.8949,2.8924,2.9018,2.9061,2.9146,2.9212,2.9239,2.9324,2.9362,2.9399,2.9399,2.9314,2.9315,2.9308,2.9284,2.9393,2.9393,2.9393,2.9393,2.9007,2.9009,2.911,2.9177,2.9244,2.9278,2.9384,2.9432,2.9479,2.9504,2.9492,2.9463,2.9454,2.9461,2.945,2.9429,2.9571,2.9572,2.9572,2.9085,2.9095,2.9181,2.9226,2.9294,2.9352,2.9451,2.9527,2.9575,2.9579,2.9525,2.9517,2.9471,2.9454,2.9457,2.944,2.9401,0,0]},{"header":{"parameterUnit":"m.s-1","parameterCategory":1,"la1":30.2992,"la2":30.254,"lo1":-89.0895,"lo2":-89.0443,"dy":0.0025,"dx":0.0025,"nx":19,"ny":19,"refTime":"2026-05-24T09:00:00:Z","depth":0,"parameterNumber":3,"parameterNumberName":"V-component_of_WINDS"},"data":[0,0,0,0.471,0.4709,0.4619,0.4619,0.4504,0.4503,0,0,0,0,0,0,0,0,0,0,0,0.4743,0.4742,0.471,0.4708,0.4619,0.4618,0.4505,0.4503,0,0,0,0,0,0,0,0,0,0,0,0.4743,0.4742,0.4742,0.4708,0.4619,0.4618,0.4505,0.4571,0,0,0,0,0,0,0,0,0,0,0.4657,0.4694,0.4742,0.4742,0.4708,0.4619,0.4618,0.4574,0.4567,0.4547,0,0.4535,0,0.4518,0.4496,0.4496,0,0,0,0.4703,0.47,0.4671,0.4741,0.4707,0.4619,0.4658,0.457,0.4562,0.4537,0.4534,0.4529,0.4516,0.4496,0.4495,0.4408,0.4408,0,0,0.4708,0.4729,0.4677,0.4666,0.4686,0.4661,0.4655,0.4565,0.456,0.4533,0.4526,0.4514,0.4495,0.4494,0.4409,0.4408,0,0,0,0.4726,0.4732,0.4705,0.4671,0.4655,0.4658,0.4652,0.4564,0.4554,0.4525,0.4513,0.4494,0.4493,0.4409,0.4409,0.4423,0,0,0,0.4728,0.4743,0.4708,0.4719,0.4657,0.461,0.4654,0.456,0.455,0.4513,0.4494,0.4492,0.4409,0.4409,0.4423,0.4427,0,0,0,0.4746,0.4745,0.4734,0.4721,0.4684,0.4611,0.4595,0.4558,0.4542,0.4496,0.4492,0.4409,0.4409,0.4423,0.4427,0.441,0,0,0,0.477,0.4748,0.4735,0.4703,0.4685,0.4622,0.4596,0.4547,0.4509,0.4494,0.4409,0.4409,0.4423,0.4427,0.441,0.4401,0.4399,0,0,0.4753,0.4746,0.4726,0.4712,0.4658,0.4634,0.4579,0.4523,0.4497,0.4438,0.4435,0.4423,0.4427,0.441,0.438,0.4379,0,0,0,0.4727,0.4713,0.4694,0.4661,0.4619,0.4582,0.4532,0.451,0.4459,0.4473,0.4412,0.4413,0.4402,0.4396,0.4395,0.4384,0.4407,0.4407,0.4407,0.4733,0.4703,0.4667,0.4626,0.4593,0.4541,0.4509,0.447,0.4448,0.4434,0.4417,0.4403,0.4397,0.4396,0.4384,0.4408,0.4408,0.4408,0.4408,0.4705,0.468,0.4651,0.4606,0.4572,0.4532,0.4478,0.4463,0.4417,0.4414,0.4402,0.4402,0.4396,0.4384,0.4409,0.4409,0.4409,0.4409,0.4409,0.4706,0.4689,0.4664,0.4611,0.4572,0.4528,0.4486,0.4455,0.4426,0.4415,0.4392,0.4392,0.4387,0.4406,0.4406,0.4406,0.4406,0.4406,0.4406,0.4718,0.469,0.4661,0.4613,0.4585,0.4545,0.4489,0.446,0.4419,0.4399,0.4399,0.4377,0.4401,0.4408,0.4405,0.4405,0.4405,0.4405,0.4405,0.4702,0.47,0.4656,0.4629,0.4568,0.4529,0.449,0.4432,0.4402,0.4381,0.436,0.4383,0.4373,0.4374,0.4379,0.4368,0.4368,0.4368,0.4368,0.4704,0.4696,0.4642,0.4601,0.4556,0.4515,0.4459,0.4413,0.4364,0.4342,0.4339,0.4343,0.4345,0.4333,0.4335,0.4339,0.4318,0.4318,0.4318,0.4692,0.4678,0.464,0.4596,0.4545,0.4499,0.4445,0.4393,0.4336,0.4315,0.4324,0.4326,0.4333,0.4337,0.4319,0.4322,0.433,0,0]}]]